This is the latest recevied weather packets stored in our database for station/object K9NZF-1. If no packets are shown the sender has not sent any weather packets the latest 10 day(s).
| Time | Temp. | Humidity | Pressure | Rain* | Wind** | Luminosity | Snow |
|---|---|---|---|---|---|---|---|
| 1778360774 | 21.67° C | 58% | 1005.6 hPa | 0 mm | - | 613 W/m² | - |
| 1778360715 | 21.67° C | 57% | 1005.7 hPa | 0 mm | - | 613 W/m² | - |
| 1778360655 | 21.67° C | 59% | 1005.7 hPa | 0 mm | - | 619 W/m² | - |
| 1778360594 | 21.67° C | 58% | 1005.9 hPa | 0 mm | - | 629 W/m² | - |
| 1778360534 | 21.67° C | 59% | 1005.9 hPa | 0 mm | - | 628 W/m² | - |
| 1778360475 | 21.67° C | 58% | 1005.9 hPa | 0 mm | - | 626 W/m² | - |
| 1778360415 | 21.67° C | 57% | 1006 hPa | 0 mm | - | 619 W/m² | - |
| 1778360359 | 21.67° C | 59% | 1006 hPa | 0 mm | - | 624 W/m² | - |
| 1778360294 | 21.67° C | 58% | 1006 hPa | 0 mm | - | 626 W/m² | - |
| 1778360235 | 21.67° C | 59% | 1006 hPa | 0 mm | - | 631 W/m² | - |
| 1778360174 | 21.67° C | 60% | 1006.1 hPa | 0 mm | - | 631 W/m² | - |
| 1778360116 | 21.67° C | 61% | 1006 hPa | 0 mm | - | 636 W/m² | - |
| 1778360047 | 21.67° C | 59% | 1006 hPa | 0 mm | - | 638 W/m² | - |
| 1778359987 | 21.67° C | 59% | 1006 hPa | 0 mm | - | 640 W/m² | - |
| 1778359925 | 21.67° C | 60% | 1006 hPa | 0 mm | - | 642 W/m² | - |
| 1778359801 | 21.67° C | 58% | 1006.1 hPa | 0 mm | - | 650 W/m² | - |
| 1778359743 | 21.67° C | 59% | 1006.1 hPa | 0 mm | - | 656 W/m² | - |
| 1778359622 | 21.67° C | 61% | 1006 hPa | 0 mm | - | 661 W/m² | - |
| 1778359557 | 21.67° C | 61% | 1006 hPa | 0 mm | - | 659 W/m² | - |
| 1778359496 | 21.67° C | 61% | 1005.9 hPa | 0 mm | - | 663 W/m² | - |
| 1778359436 | 21.67° C | 60% | 1006 hPa | 0 mm | - | 661 W/m² | - |
| 1778359376 | 21.67° C | 60% | 1006 hPa | 0 mm | - | 664 W/m² | - |
| 1778359316 | 21.67° C | 59% | 1005.9 hPa | 0 mm | - | 668 W/m² | - |
| 1778359256 | 21.67° C | 62% | 1006 hPa | 0 mm | - | 671 W/m² | - |
| 1778359196 | 21.67° C | 60% | 1005.9 hPa | 0 mm | - | 673 W/m² | - |
* Rain latest hour (hover to see other rain measurements)
** Current wind speed in m/s (hover to see current wind gust speed)